Wind_Speed
39 40 42 44 45 48 52 54 55 56 57 57 59 62 62 67 67 72 77 80 83 83 80 74 74 86 75 86 92 99 96 89 74 61 53 50 50 44 42 40 43 36 36
43 45 48 51 52 54 57 57 58 59 60 62 64 65 68 72 75 79 83 84 84 80 78 78 85 82 82 87 98 97 96 84 72 58 51 49 44 34 29 29 31 30 27
48 50 53 56 58 60 61 61 62 64 66 67 71 72 75 76 81 84 86 83 81 75 78 79 82 81 89 93 100 99 95 82 69 55 45 41 35 31 27 24 19 19 16
56 58 59 59 61 63 65 67 69 71 72 72 74 77 77 83 84 84 83 84 78 74 76 79 76 79 92 95 103 99 88 81 63 52 43 35 31 21 11 13 16 16 18
61 63 63 64 65 68 69 71 73 75 76 78 80 81 84 83 85 81 78 78 73 71 77 77 79 83 96 100 103 104 88 79 58 51 37 26 19 9 7 2 13 16 18
65 68 68 69 71 71 74 75 78 79 81 83 85 86 85 86 85 79 81 71 72 78 74 77 83 91 97 102 106 102 86 68 49 43 25 18 7 6 8 6 11 17 14
71 72 73 74 75 76 78 80 80 83 85 87 89 88 86 86 85 77 64 60 69 74 70 75 90 98 101 107 116 100 86 61 40 29 17 7 9 12 10 8 11 16 18
75 76 76 78 79 81 82 83 85 87 87 87 88 88 88 87 78 55 65 71 74 79 75 87 94 98 103 109 101 93 79 52 33 15 11 13 14 10 5 8 15 18 17
81 81 82 83 85 85 86 87 88 88 88 88 88 81 80 59 50 56 71 77 79 82 79 86 97 101 108 99 100 85 65 41 15 13 15 7 4 3 7 9 8 18 27
86 88 89 89 89 87 86 86 86 84 80 74 73 68 49 50 56 68 76 69 69 78 81 92 96 103 101 104 86 77 48 17 11 16 13 12 6 3 6 8 17 27 15
82 83 81 78 75 72 72 65 67 64 56 65 76 54 45 55 58 59 65 70 78 83 90 92 97 96 101 85 79 64 35 13 16 17 16 9 4 2 8 10 18 21 17
66 66 66 63 64 62 62 66 60 63 70 66 56 42 51 59 64 73 75 80 81 82 93 96 103 96 92 82 76 47 27 22 22 23 23 13 8 10 4 9 13 13 20
58 58 57 59 57 58 61 61 59 56 46 39 39 52 65 73 67 72 74 82 86 91 94 101 90 87 84 80 66 34 17 28 26 28 29 19 11 11 9 3 4 6 6
55 58 58 56 57 57 58 48 36 28 33 37 45 53 61 66 62 64 85 90 95 96 98 93 91 87 83 76 50 29 18 31 30 34 32 22 16 11 8 7 5 3 1
55 56 57 53 49 48 33 32 34 38 44 52 52 61 62 64 69 81 87 93 92 92 92 90 86 81 77 69 40 26 21 35 35 36 36 30 27 20 13 10 10 10 10
54 54 55 48 47 36 33 34 43 45 50 55 55 59 65 73 75 82 86 87 91 89 86 85 79 76 74 52 36 21 23 39 39 37 39 34 28 23 21 22 21 18 14
56 55 52 50 43 45 44 42 50 55 56 60 66 70 73 77 86 84 86 87 86 87 84 79 77 75 60 42 30 19 25 34 42 38 34 32 27 25 21 25 25 22 18
54 54 54 50 48 50 52 54 56 55 60 63 67 71 75 83 77 78 83 83 86 83 80 79 77 61 44 33 23 19 24 33 38 46 41 38 34 30 26 23 25 29 26
56 53 53 54 54 57 60 62 66 67 72 72 76 72 72 70 73 77 81 83 81 79 80 78 63 45 33 23 19 19 22 32 34 42 46 46 40 36 34 31 29 28 28
57 59 58 56 54 58 61 59 59 60 59 58 60 62 67 72 77 80 83 82 78 79 78 67 47 34 27 21 19 21 24 30 35 38 45 47 46 43 41 35 34 39 32
57 62 61 59 57 57 58 59 59 56 55 61 63 68 71 74 79 81 86 81 78 77 65 47 36 29 24 20 18 20 20 29 37 38 43 44 46 48 46 44 45 39 39
56 62 64 59 59 62 61 64 67 62 62 68 71 74 77 81 83 88 87 81 78 65 47 37 31 27 23 22 22 21 19 21 31 43 43 43 48 49 49 51 50 48 45
62 61 62 63 63 65 64 64 66 67 68 73 77 76 83 86 86 93 84 80 64 47 39 33 28 24 23 23 25 26 27 24 22 28 40 47 43 51 54 54 53 52 53
63 68 66 66 66 68 69 70 68 71 73 73 76 82 86 88 89 88 82 66 47 40 34 31 27 24 24 26 26 26 27 25 24 23 28 36 46 50 51 53 55 59 60
67 71 70 74 73 72 70 71 75 74 74 78 83 86 88 89 94 83 69 50 42 36 32 29 28 29 32 36 36 34 31 29 29 29 28 30 33 44 54 55 58 62 66
73 74 73 76 75 71 69 70 73 76 80 83 85 86 89 93 80 71 54 42 37 33 32 29 29 29 30 30 30 31 32 32 31 31 31 31 32 34 38 45 55 65 66
Wind_Direction
303 305 305 306 309 310 313 319 323 323 322 322 322 323 325 325 326 325 325 328 328 329 329 329 322 327 331 335 334 335 334 331 326 319 304 296 294 296 290 283 278 273 261
299 300 301 304 308 310 314 317 319 317 318 319 321 323 323 325 325 325 325 326 328 331 329 324 323 328 334 332 331 335 335 330 328 322 305 298 298 298 285 283 278 272 259
291 294 298 303 307 310 312 313 313 314 316 319 319 321 321 323 323 324 325 328 330 324 317 320 323 326 331 331 331 336 333 331 327 322 310 307 300 295 286 283 270 269 250
295 298 302 305 306 307 309 311 312 313 316 317 317 319 319 320 321 323 326 328 326 323 319 320 326 329 329 329 331 334 333 332 328 322 313 308 299 288 265 253 257 259 257
297 299 301 302 304 306 307 308 310 312 314 315 316 317 318 319 322 325 322 322 320 326 324 326 328 326 327 327 330 333 333 330 328 319 316 302 286 255 208 19 332 290 253
294 297 300 301 303 305 306 309 311 312 313 314 314 314 316 316 318 320 320 317 322 319 322 329 326 327 327 327 326 331 333 330 324 313 312 296 247 210 168 173 252 281 278
295 296 299 300 303 305 307 308 308 308 309 309 311 312 313 314 316 318 316 318 311 316 324 321 321 324 323 324 327 329 333 329 325 314 283 237 186 246 213 233 251 271 284
294 296 298 299 301 301 302 302 303 304 306 307 307 309 311 312 315 316 322 322 319 318 316 314 317 322 323 323 327 330 331 325 328 306 220 204 216 251 264 274 286 309 295
293 295 295 296 296 297 298 299 300 301 302 304 305 306 312 311 313 317 321 314 315 317 310 313 316 318 320 324 326 329 329 325 335 168 194 201 235 285 284 299 341 313 299
290 291 293 294 295 296 297 298 298 300 302 304 303 314 310 315 317 317 313 303 304 308 310 311 314 315 318 321 327 331 327 321 182 195 196 204 275 273 299 333 337 326 336
288 289 293 296 296 297 297 300 299 301 302 290 294 303 312 320 316 316 311 308 300 303 309 314 316 316 318 323 327 329 323 216 212 190 185 183 215 274 251 323 343 7 37
289 293 295 294 297 299 298 298 299 301 304 304 298 294 312 316 306 313 311 307 309 306 310 314 315 316 320 324 329 325 312 218 214 199 188 182 208 240 269 326 334 46 52
295 296 296 295 294 295 294 296 301 298 299 314 311 319 312 308 310 308 311 312 310 311 313 313 319 320 321 327 329 321 283 213 208 202 205 194 200 242 248 322 7 21 351
299 299 299 298 297 297 297 297 296 297 309 306 308 300 305 308 309 308 310 311 309 308 313 315 315 319 323 328 327 318 240 213 210 203 209 198 195 222 209 283 239 173 338
301 300 299 301 301 302 300 292 294 290 292 298 298 295 303 299 294 297 306 310 311 313 314 315 320 322 325 326 323 312 234 208 214 206 211 214 212 218 231 212 217 261 269
306 304 305 306 305 293 295 303 311 297 300 304 294 286 292 297 303 304 309 311 310 312 315 319 321 322 323 322 319 299 231 211 216 215 214 220 225 232 229 235 252 254 261
312 309 307 305 295 290 291 296 296 295 292 293 295 293 292 295 303 306 308 311 311 314 318 319 321 322 320 318 312 279 229 220 215 217 218 219 224 219 231 235 238 239 246
307 301 303 302 300 298 301 305 303 298 288 293 295 293 296 302 307 310 308 309 311 316 318 320 321 320 317 312 298 260 231 219 219 215 217 221 228 226 230 239 234 240 242
307 304 300 300 300 300 300 300 298 302 299 296 296 301 302 307 308 309 311 312 315 319 320 321 320 318 314 303 283 259 234 221 225 218 221 224 228 231 234 241 239 237 234
305 302 300 298 298 296 296 300 305 305 305 304 304 307 311 312 311 312 315 316 319 321 320 319 317 314 312 301 279 264 242 228 222 220 221 223 226 226 233 233 233 233 240
303 302 299 301 301 300 302 303 305 304 304 306 308 313 316 315 314 317 321 321 321 320 319 317 314 311 306 295 281 276 270 240 226 225 224 226 229 231 233 235 232 239 234
300 298 297 299 302 303 303 301 302 306 310 310 311 313 316 317 318 321 322 322 320 318 316 315 310 308 300 295 288 289 283 263 243 232 230 232 230 233 237 236 238 238 239
299 299 302 300 297 298 301 301 299 303 306 308 312 312 314 317 317 320 321 320 318 313 313 311 307 300 293 294 286 281 283 283 269 251 239 236 238 238 238 239 239 241 244
293 298 300 305 301 297 299 302 302 302 306 309 308 310 313 315 319 321 319 317 312 309 308 306 305 300 297 302 301 291 289 285 280 278 257 246 242 240 241 242 242 243 243
291 292 295 302 302 299 299 299 302 305 305 305 308 310 314 316 318 316 316 310 306 304 305 305 304 300 296 291 290 293 292 288 285 281 275 263 255 249 245 243 244 245 244
289 290 293 298 300 301 303 302 301 302 304 307 310 314 316 316 315 314 309 303 302 301 300 298 294 292 293 296 297 297 296 292 287 284 280 276 271 264 258 255 252 249 247
Height
10974 10972 10970 10967 10963 10958 10951 10947 10944 10939 10932 10927 10921 10912 10906 10899 10890 10882 10872 10863 10854 10843 10833 10821 10810 10800 10787 10774 10765 10752 10736 10722 10712 10698 10685 10677 10673 10673 10671 10670 10668 10674 10677
10968 10964 10960 10958 10955 10950 10945 10942 10936 10930 10925 10916 10910 10902 10892 10888 10879 10869 10859 10849 10839 10826 10818 10809 10798 10785 10773 10760 10750 10737 10722 10703 10690 10682 10669 10661 10657 10658 10657 10657 10656 10657 10660
10960 10957 10953 10950 10946 10942 10936 10931 10925 10919 10913 10906 10896 10892 10882 10873 10866 10856 10845 10832 10821 10817 10809 10797 10784 10773 10760 10750 10736 10722 10706 10689 10672 10665 10656 10648 10645 10644 10645 10646 10644 10646 10649
10950 10948 10945 10943 10937 10931 10924 10918 10911 10904 10900 10894 10886 10878 10872 10862 10851 10843 10832 10821 10813 10804 10794 10781 10770 10759 10748 10737 10723 10709 10692 10674 10659 10650 10645 10639 10636 10634 10637 10639 10639 10641 10643
10940 10936 10934 10930 10926 10920 10915 10908 10899 10890 10885 10880 10871 10863 10855 10845 10836 10826 10818 10811 10801 10792 10781 10768 10756 10748 10735 10723 10710 10696 10679 10661 10648 10637 10635 10631 10630 10630 10634 10637 10638 10637 10638
10929 10925 10922 10917 10912 10908 10902 10893 10883 10874 10866 10862 10856 10850 10844 10834 10827 10818 10809 10799 10790 10781 10768 10755 10743 10734 10721 10710 10697 10684 10668 10654 10639 10628 10629 10627 10628 10629 10631 10631 10632 10634 10636
10915 10911 10908 10903 10898 10892 10885 10878 10870 10862 10856 10847 10841 10836 10828 10820 10813 10806 10795 10785 10779 10770 10758 10747 10734 10724 10711 10697 10682 10668 10654 10640 10631 10623 10621 10623 10625 10626 10628 10628 10629 10630 10631
10901 10898 10894 10889 10885 10879 10873 10866 10859 10851 10843 10834 10827 10819 10813 10805 10796 10789 10781 10773 10765 10757 10748 10736 10724 10713 10699 10687 10672 10656 10643 10631 10621 10618 10619 10620 10622 10625 10625 10626 10626 10625 10623
10884 10882 10877 10874 10869 10865 10859 10851 10843 10836 10828 10821 10814 10807 10801 10791 10784 10777 10769 10761 10754 10747 10738 10726 10712 10700 10688 10675 10663 10648 10634 10624 10615 10616 10618 10621 10622 10623 10622 10623 10622 10621 10616
10869 10865 10860 10856 10852 10847 10842 10835 10827 10822 10815 10803 10800 10798 10788 10781 10775 10766 10763 10753 10746 10737 10727 10717 10703 10691 10679 10667 10652 10639 10627 10618 10614 10615 10618 10619 10620 10621 10620 10620 10619 10614 10606
10854 10848 10845 10840 10834 10831 10824 10819 10813 10807 10804 10795 10789 10788 10777 10770 10765 10759 10752 10746 10735 10726 10713 10704 10692 10679 10668 10656 10642 10629 10622 10615 10613 10615 10616 10618 10619 10620 10620 10619 10618 10614 10607
10840 10836 10831 10825 10819 10814 10810 10803 10797 10794 10789 10781 10777 10773 10766 10760 10752 10745 10739 10731 10722 10712 10699 10687 10677 10664 10653 10641 10629 10618 10614 10609 10610 10612 10614 10616 10617 10618 10619 10618 10617 10615 10613
10828 10824 10817 10812 10808 10803 10795 10789 10785 10782 10776 10772 10769 10764 10757 10746 10740 10731 10724 10718 10708 10697 10685 10673 10662 10649 10639 10628 10616 10609 10605 10603 10605 10608 10611 10613 10615 10615 10618 10617 10617 10615 10615
10814 10809 10803 10798 10792 10786 10780 10776 10774 10770 10766 10763 10758 10752 10745 10738 10723 10713 10711 10704 10695 10685 10674 10660 10647 10635 10624 10614 10606 10600 10598 10598 10600 10603 10606 10609 10612 10614 10616 10617 10616 10614 10614
10800 10795 10790 10785 10778 10772 10769 10766 10763 10758 10754 10751 10747 10740 10736 10729 10725 10711 10702 10692 10681 10669 10658 10647 10633 10622 10610 10602 10595 10592 10591 10592 10594 10596 10600 10604 10606 10609 10611 10613 10614 10615 10614
10787 10781 10776 10772 10767 10764 10761 10757 10754 10750 10746 10739 10733 10725 10720 10713 10707 10700 10691 10680 10669 10658 10645 10632 10620 10610 10599 10590 10585 10584 10584 10585 10587 10591 10593 10597 10600 10603 10606 10608 10610 10611 10612
10775 10770 10764 10762 10758 10754 10751 10746 10742 10739 10733 10727 10721 10713 10707 10702 10693 10684 10675 10666 10653 10643 10631 10617 10606 10596 10586 10579 10575 10575 10576 10578 10580 10584 10587 10589 10592 10596 10599 10602 10604 10606 10608
10763 10759 10757 10754 10747 10742 10740 10737 10732 10728 10720 10715 10708 10702 10696 10687 10677 10669 10660 10650 10638 10626 10614 10603 10591 10581 10574 10569 10567 10567 10568 10571 10572 10576 10580 10583 10586 10589 10593 10595 10598 10600 10602
10752 10748 10745 10740 10736 10731 10726 10725 10719 10713 10701 10699 10692 10687 10679 10672 10663 10654 10645 10634 10621 10608 10596 10586 10576 10568 10564 10561 10560 10560 10561 10564 10565 10567 10570 10574 10578 10581 10585 10588 10590 10591 10594
10738 10735 10733 10728 10726 10720 10713 10710 10705 10702 10691 10684 10679 10673 10664 10657 10648 10638 10627 10614 10602 10592 10581 10571 10563 10558 10555 10554 10553 10552 10553 10554 10557 10558 10561 10565 10568 10571 10574 10578 10580 10583 10585
10725 10723 10720 10717 10713 10707 10704 10697 10695 10692 10683 10670 10666 10659 10652 10643 10634 10622 10609 10596 10585 10576 10566 10558 10553 10551 10548 10547 10546 10546 10546 10546 10547 10549 10552 10555 10557 10560 10562 10565 10568 10571 10574
10720 10708 10705 10705 10701 10692 10689 10685 10677 10673 10667 10654 10651 10644 10637 10627 10616 10605 10591 10580 10570 10560 10553 10549 10546 10543 10541 10540 10539 10539 10538 10537 10538 10540 10541 10543 10546 10549 10552 10554 10557 10560 10563
10700 10700 10692 10689 10687 10684 10680 10673 10665 10659 10655 10643 10635 10628 10619 10610 10599 10588 10575 10565 10555 10548 10543 10541 10539 10536 10534 10533 10532 10531 10530 10529 10529 10529 10529 10532 10534 10537 10540 10543 10545 10547 10550
10685 10679 10678 10676 10671 10665 10663 10659 10651 10643 10642 10632 10623 10615 10603 10593 10581 10570 10560 10551 10544 10539 10536 10532 10530 10528 10527 10526 10524 10523 10521 10520 10519 10519 10518 10519 10520 10522 10524 10527 10529 10532 10534
10670 10663 10662 10660 10654 10647 10649 10641 10633 10626 10619 10614 10606 10596 10586 10575 10566 10555 10546 10539 10534 10530 10527 10524 10522 10520 10519 10518 10516 10514 10511 10510 10508 10508 10507 10507 10508 10509 10510 10510 10512 10514 10516
10654 10648 10645 10645 10637 10631 10631 10627 10619 10612 10603 10594 10586 10577 10568 10558 10549 10540 10534 10529 10525 10522 10520 10517 10514 10513 10511 10508 10505 10503 10501 10499 10497 10496 10495 10495 10494 10495 10495 10495 10495 10496 10497